• In Belarus
  • List of Countries
  • For 7 days
  • Water Temperature
  • Weather Map
  • Weather Widgets
  • user-avatar
    Login

    Hourly Weather Guadix

    Today, 29 January, Wednesday

    Time Temperature Precipitation Wind Pressure Humidity
    00:00 +7°C° 0 mm 1 mps 684 mmHg 88%
    01:00 +7°C° 0 mm 1 mps 684 mmHg 85%
    02:00 +7°C° 0 mm 1 mps 684 mmHg 83%
    03:00 +6°C° 0 mm 1 mps 683 mmHg 80%
    04:00 +6°C° 0 mm 1 mps 683 mmHg 80%
    05:00 +6°C° 0 mm 1 mps 684 mmHg 79%
    06:00 +6°C° 0 mm 1 mps 684 mmHg 79%
    07:00 +7°C° 0 mm 1 mps 684 mmHg 77%
    08:00 +9°C° 0 mm 1 mps 684 mmHg 75%
    09:00 +10°C° 0 mm 1 mps 685 mmHg 73%
    10:00 +11°C° 0 mm 1 mps 685 mmHg 70%
    11:00 +12°C° 0 mm 1 mps 685 mmHg 67%
    12:00 +13°C° 0 mm 1 mps 686 mmHg 64%
    13:00 +13°C° 0 mm 1 mps 685 mmHg 61%
    14:00 +14°C° 0 mm 1 mps 685 mmHg 58%
    15:00 +14°C° 0 mm 2 mps 684 mmHg 55%
    16:00 +13°C° 0 mm 2 mps 684 mmHg 58%
    17:00 +12°C° 0 mm 2 mps 684 mmHg 61%
    18:00 +10°C° 0 mm 1 mps 684 mmHg 63%
    19:00 +10°C° 0 mm 1 mps 684 mmHg 63%
    20:00 +10°C° 0 mm 1 mps 685 mmHg 63%
    21:00 +9°C° 0 mm 1 mps 685 mmHg 63%
    22:00 +9°C° 0 mm 1 mps 685 mmHg 60%
    23:00 +9°C° 0 mm 1 mps 685 mmHg 58%

    Tomorrow, 30 January, Thursday

    Time Temperature Precipitation Wind Pressure Humidity
    00:00 +9°C° 0 mm 1 mps 685 mmHg 56%
    01:00 +9°C° 0 mm 1 mps 684 mmHg 55%
    02:00 +9°C° 0 mm 1 mps 684 mmHg 54%
    03:00 +8°C° 0 mm 1 mps 684 mmHg 53%
    04:00 +8°C° 0 mm 1 mps 684 mmHg 52%
    05:00 +8°C° 0 mm 1 mps 684 mmHg 52%
    06:00 +8°C° 0 mm 1 mps 684 mmHg 51%
    07:00 +9°C° 0 mm 1 mps 684 mmHg 50%
    08:00 +10°C° 0 mm 1 mps 685 mmHg 49%
    09:00 +11°C° 0 mm 1 mps 685 mmHg 48%
    10:00 +13°C° 0 mm 2 mps 686 mmHg 46%
    11:00 +14°C° 0 mm 2 mps 686 mmHg 44%
    12:00 +15°C° 0 mm 2 mps 686 mmHg 41%
    13:00 +15°C° 0 mm 2 mps 686 mmHg 41%
    14:00 +14°C° 0 mm 3 mps 685 mmHg 40%
    15:00 +14°C° 0 mm 3 mps 685 mmHg 40%
    16:00 +12°C° 0 mm 3 mps 685 mmHg 44%
    17:00 +12°C° 0 mm 2 mps 684 mmHg 48%
    18:00 +9°C° 0 mm 2 mps 684 mmHg 52%
    19:00 +9°C° 0 mm 2 mps 684 mmHg 53%
    20:00 +8°C° 0 mm 2 mps 684 mmHg 54%
    21:00 +9°C° 0 mm 1 mps 685 mmHg 55%
    22:00 +9°C° 0 mm 1 mps 685 mmHg 58%
    23:00 +8°C° 0 mm 1 mps 685 mmHg 60%

    Day after tomorrow, 31 January, Friday

    Time Temperature Precipitation Wind Pressure Humidity
    00:00 +8°C° 0 mm 1 mps 685 mmHg 63%
    01:00 +8°C° 0 mm 1 mps 684 mmHg 63%
    02:00 +7°C° 0 mm 1 mps 684 mmHg 63%
    03:00 +7°C° 0 mm 1 mps 684 mmHg 64%
    04:00 +7°C° 0 mm 1 mps 684 mmHg 67%
    05:00 +7°C° 0 mm 1 mps 684 mmHg 70%
    06:00 +7°C° 0 mm 1 mps 684 mmHg 72%
    07:00 +8°C° 0 mm 1 mps 684 mmHg 72%
    08:00 +10°C° 0 mm 1 mps 685 mmHg 71%
    09:00 +11°C° 0 mm 1 mps 686 mmHg 71%
    10:00 +12°C° 0 mm 1 mps 686 mmHg 68%
    11:00 +13°C° 0 mm 1 mps 686 mmHg 66%
    12:00 +14°C° 0 mm 2 mps 686 mmHg 64%
    13:00 +14°C° 0 mm 2 mps 685 mmHg 64%
    14:00 +14°C° 0 mm 2 mps 685 mmHg 65%
    15:00 +15°C° 0 mm 2 mps 685 mmHg 66%
    16:00 +13°C° 0 mm 2 mps 685 mmHg 72%
    17:00 +12°C° 0 mm 2 mps 684 mmHg 77%
    18:00 +11°C° 0 mm 1 mps 684 mmHg 83%
    19:00 +10°C° 0 mm 1 mps 684 mmHg 84%
    20:00 +10°C° 0 mm 1 mps 684 mmHg 85%
    21:00 +10°C° 0 mm 1 mps 685 mmHg 85%
    22:00 +10°C° 0 mm 1 mps 685 mmHg 85%
    23:00 +10°C° 0 mm 1 mps 685 mmHg 85%

    1 February, Saturday

    Time Temperature Precipitation Wind Pressure Humidity
    00:00 +10°C° 0 mm 1 mps 685 mmHg 85%
    01:00 +9°C° 0 mm 1 mps 684 mmHg 85%
    02:00 +9°C° 0 mm 1 mps 684 mmHg 86%
    03:00 +9°C° 0 mm 1 mps 684 mmHg 86%
    04:00 +9°C° 0 mm 1 mps 684 mmHg 86%
    05:00 +9°C° 0 mm 1 mps 684 mmHg 86%
    06:00 +9°C° 0 mm 1 mps 684 mmHg 86%
    07:00 +10°C° 0 mm 1 mps 684 mmHg 83%
    08:00 +11°C° 0 mm 1 mps 685 mmHg 81%
    09:00 +13°C° 0 mm 1 mps 686 mmHg 78%
    10:00 +14°C° 0 mm 1 mps 686 mmHg 75%
    11:00 +15°C° 0 mm 1 mps 687 mmHg 71%
    12:00 +16°C° 0 mm 1 mps 687 mmHg 68%
    13:00 +16°C° 0 mm 1 mps 687 mmHg 67%
    14:00 +16°C° 0 mm 1 mps 686 mmHg 65%
    15:00 +18°C° 0 mm 1 mps 686 mmHg 64%
    16:00 +15°C° 0 mm 1 mps 686 mmHg 70%
    17:00 +14°C° 0 mm 1 mps 686 mmHg 77%
    18:00 +11°C° 0 mm 0 mps 685 mmHg 83%
    19:00 +11°C° 0 mm 0 mps 686 mmHg 84%
    20:00 +10°C° 0 mm 0 mps 686 mmHg 84%
    21:00 +10°C° 0 mm 0 mps 686 mmHg 84%
    22:00 +10°C° 0 mm 0 mps 686 mmHg 84%
    23:00 +9°C° 0 mm 0 mps 686 mmHg 83%

    2 February, Sunday

    Time Temperature Precipitation Wind Pressure Humidity
    00:00 +9°C° 0 mm 0 mps 686 mmHg 83%
    01:00 +9°C° 0 mm 0 mps 686 mmHg 83%
    02:00 +10°C° 0 mm 1 mps 686 mmHg 82%
    03:00 +10°C° 0 mm 1 mps 686 mmHg 82%
    04:00 +9°C° 0 mm 1 mps 685 mmHg 82%
    05:00 +9°C° 0 mm 1 mps 685 mmHg 82%
    06:00 +9°C° 0 mm 1 mps 685 mmHg 81%
    07:00 +11°C° 0 mm 1 mps 686 mmHg 77%
    08:00 +12°C° 0 mm 1 mps 687 mmHg 73%
    09:00 +14°C° 0 mm 1 mps 688 mmHg 69%
    10:00 +15°C° 0 mm 1 mps 688 mmHg 64%
    11:00 +18°C° 0 mm 1 mps 688 mmHg 59%
    12:00 +19°C° 0 mm 1 mps 688 mmHg 55%
    13:00 +19°C° 0 mm 1 mps 688 mmHg 54%
    14:00 +20°C° 0 mm 1 mps 688 mmHg 53%
    15:00 +20°C° 0 mm 1 mps 688 mmHg 52%
    16:00 +18°C° 0 mm 1 mps 687 mmHg 59%
    17:00 +15°C° 0 mm 1 mps 687 mmHg 66%
    18:00 +14°C° 0 mm 1 mps 687 mmHg 72%
    19:00 +13°C° 0 mm 1 mps 687 mmHg 71%
    20:00 +13°C° 0 mm 1 mps 687 mmHg 70%
    21:00 +12°C° 0 mm 1 mps 687 mmHg 69%
    22:00 +12°C° 0 mm 1 mps 687 mmHg 67%
    23:00 +12°C° 0 mm 1 mps 687 mmHg 65%

    3 February, Monday

    Time Temperature Precipitation Wind Pressure Humidity
    00:00 +11°C° 0 mm 1 mps 687 mmHg 64%
    01:00 +11°C° 0 mm 1 mps 686 mmHg 62%
    02:00 +11°C° 0 mm 1 mps 686 mmHg 61%
    03:00 +11°C° 0 mm 1 mps 686 mmHg 60%
    04:00 +10°C° 0 mm 1 mps 685 mmHg 60%
    05:00 +10°C° 0 mm 1 mps 685 mmHg 59%
    06:00 +10°C° 0 mm 1 mps 685 mmHg 59%
    07:00 +12°C° 0 mm 1 mps 686 mmHg 55%
    08:00 +13°C° 0 mm 1 mps 686 mmHg 52%
    09:00 +15°C° 0 mm 1 mps 687 mmHg 49%
    10:00 +16°C° 0 mm 1 mps 687 mmHg 44%
    11:00 +19°C° 0 mm 1 mps 688 mmHg 40%
    12:00 +20°C° 0 mm 1 mps 688 mmHg 35%
    13:00 +20°C° 0 mm 1 mps 687 mmHg 35%
    14:00 +21°C° 0 mm 1 mps 687 mmHg 36%
    15:00 +21°C° 0 mm 1 mps 687 mmHg 36%
    16:00 +19°C° 0 mm 1 mps 686 mmHg 44%
    17:00 +15°C° 0 mm 0 mps 686 mmHg 52%
    18:00 +12°C° 0 mm 0 mps 685 mmHg 61%
    19:00 +12°C° 0 mm 0 mps 686 mmHg 61%
    20:00 +13°C° 0 mm 1 mps 686 mmHg 61%
    21:00 +12°C° 0 mm 1 mps 686 mmHg 62%
    22:00 +12°C° 0 mm 1 mps 686 mmHg 62%
    23:00 +11°C° 0 mm 1 mps 686 mmHg 62%
    Show more